Location: Unspecified
(0.0000°N, 0.0000°E)
Time: 21:21:25
(UTC+02:00)

HO-68 - Visible Passes

Search period start: 18 April 2015 00:00
Search period end: 28 April 2015 00:00
Orbit: 1193 x 1204 km, 100.2° (Epoch: 18 April)

Date Brightness Start Highest point End Pass type
(mag) Time Alt. Az. Time Alt. Az. Time Alt. Az.
18 Apr ? 21:25:29 17° NE 21:25:29 17° NE 21:28:03 10° NNE visible
18 Apr ? 23:14:56 22° NW 23:14:56 22° NW 23:17:22 10° NW visible
19 Apr ? 21:08:16 11° ENE 21:08:16 11° ENE 21:09:16 10° NE visible
19 Apr ? 22:57:42 28° NNW 22:57:42 28° NNW 23:00:50 10° NNW visible
20 Apr ? 22:40:28 34° NNW 22:40:28 34° NNW 22:44:06 10° NNW visible
21 Apr ? 22:23:15 35° N 22:23:15 35° N 22:27:09 10° N visible
22 Apr ? 22:06:02 32° NNE 22:06:02 32° NNE 22:09:59 10° N visible
23 Apr ? 21:48:48 26° NE 21:48:48 26° NE 21:52:35 10° NNE visible
23 Apr ? 23:38:14 15° WNW 23:38:14 15° WNW 23:39:36 10° NW visible
24 Apr ? 21:31:34 20° NE 21:31:34 20° NE 21:34:51 10° NNE visible
24 Apr ? 23:21:01 21° NW 23:21:01 21° NW 23:23:28 10° NW visible
25 Apr ? 21:14:21 14° ENE 21:14:21 14° ENE 21:16:32 10° NE visible
25 Apr ? 23:03:48 28° NW 23:03:48 28° NW 23:07:03 10° NNW visible
26 Apr ? 22:46:34 35° NNW 22:46:34 35° NNW 22:50:23 10° NNW visible
27 Apr ? 22:29:21 39° N 22:29:21 39° N 22:33:31 10° N visible
